Content
SEND FEEDBACK

Daily
Averages
Monthly
Summary
United States of America

RAPID CITY, SOUTH DAKOTA


Home > North America > United States > South Dakota
Elevation: 3162 feet     Latitude: 44 03N     Longitude: 103 04W

WEATHER
 
SELECT A DAY
Number of Records: 200,148;   Date Range: 1/1/95 - 7/7/14
 
SHARE

PRINT THIS DATA

[ ← Previous Day ]
WEATHER ALMANAC - JANUARY 18, 2013
[ Next Day → ]
[ °C ]   °F
Weather ElementAverageHighLow
Temperature41.1 °F59 °F (12:52 pm)28 °F (3:52 am)
Dewpoint16.9 °F23 °F (9:52 am)14 °F (12:52 pm)
Humidity41 %66 % (3:52 am)17 % (12:52 pm)
Barometer29.96 in30.03 in (7:52 am)29.90 in (12:52 pm)
Wind Speed5.8 mph12.7 mph (1:52 pm)
Weather ElementAverage
Visibility10 mi
Wind DirectionWSW (260 °)

Weather ElementTotal
Precipitation---
Heating Degree Days21.5 (Base 65)
Averaged from 23 records on January 18, 2013
WEATHER CONDITIONS BREAKOUT
WIND DIRECTION BREAKOUT
WEATHER BY HOUR - JANUARY 18, 2013
[ °C ]   °F
Local TimeTemperatureDewpointHumidityBarometerVisibilityWind DirectionWind SpeedGust SpeedPrecipitationEventsConditions
1:52 AM30.9 °F18.0 °F59 %30.02 in10.0 miCalmClear
2:52 AM28.9 °F18.0 °F64 %30.02 in10.0 miCalmClear
3:52 AM28.0 °F18.0 °F66 %30.01 in10.0 miNW (310°)4.6 mphClear
4:52 AM30.0 °F16.0 °F56 %30.01 in10.0 miCalmClear
5:52 AM30.9 °F15.1 °F52 %30.00 in10.0 miWNW (300°)3.5 mphClear
6:52 AM28.9 °F15.1 °F56 %30.02 in10.0 miWest (270°)4.6 mphClear
7:52 AM30.9 °F17.1 °F57 %30.03 in10.0 miWNW (290°)6.9 mphClear
8:52 AM39.0 °F21.9 °F50 %30.03 in10.0 miWNW (300°)5.8 mphClear
9:52 AM48.9 °F23.0 °F36 %30.01 in10.0 miWest (260°)6.9 mphClear
10:52 AM55.0 °F16.0 °F22 %29.98 in10.0 miWNW (300°)5.8 mphClear
11:52 AM57.9 °F15.1 °F19 %29.94 in10.0 miWest (280°)9.2 mphClear
12:52 PM59.0 °F14.0 °F17 %29.90 in10.0 miNW (310°)9.2 mphClear
1:52 PM54.0 °F15.1 °F22 %29.91 in10.0 miNorth (350°)12.7 mphClear
2:52 PM52.0 °F18.0 °F26 %29.91 in10.0 miNNW (340°)8.1 mphClear
3:52 PM51.1 °F14.0 °F23 %29.91 in10.0 miNW (320°)10.4 mphClear
4:52 PM45.0 °F14.0 °F29 %29.92 in10.0 miNW (320°)4.6 mphClear
5:52 PM39.0 °F17.1 °F41 %29.94 in10.0 miWNW (300°)4.6 mphMostly Cloudy
6:52 PM42.1 °F15.1 °F34 %29.93 in10.0 miWSW (240°)4.6 mphPartly Cloudy
7:52 PM39.0 °F15.1 °F38 %29.93 in10.0 miWest (260°)3.5 mphClear
8:52 PM37.9 °F18.0 °F45 %29.92 in10.0 miWNW (290°)6.9 mphClear
9:52 PM39.9 °F18.0 °F41 %29.91 in10.0 miNW (320°)4.6 mphMostly Cloudy
10:52 PM37.0 °F19.9 °F50 %29.91 in10.0 miWNW (290°)5.8 mphPartly Cloudy
11:52 PM39.0 °F17.1 °F41 %29.91 in10.0 miNNW (330°)11.5 mphClear
Hourly data recorded from KRAP, located miles away from Rapid City, South Dakota







STORIES FROM OUR PARTNERS